This is the latest recevied weather packets stored in our database for station/object NC4M. If no packets are shown the sender has not sent any weather packets the latest 1 day(s).
| Time | Temp. | Humidity | Pressure | Rain* | Wind** | Luminosity | Snow |
|---|---|---|---|---|---|---|---|
| 1778070831 | 7.78° C | 94% | 1016.5 hPa | 0 mm | - | 33 W/m² | - |
| 1778070528 | 7.22° C | 94% | 1016.1 hPa | 0 mm | - | 36 W/m² | - |
| 1778069620 | 7.22° C | 95% | 1015.8 hPa | 0 mm | - | 21 W/m² | - |
| 1778069317 | 7.22° C | 94% | 1015.7 hPa | 0 mm | - | 25 W/m² | - |
| 1778069015 | 7.22° C | 94% | 1015.5 hPa | 0 mm | - | 14 W/m² | - |
| 1778068410 | 7.22° C | 94% | 1015.6 hPa | 0 mm | - | 24 W/m² | - |
| 1778067805 | 7.22° C | 95% | 1015.6 hPa | 0 mm | - | 9 W/m² | - |
| 1778067201 | 7.22° C | 95% | 1015.8 hPa | 0 mm | - | 5 W/m² | - |
| 1778066897 | 7.22° C | 95% | 1015.6 hPa | 0 mm | - | 4 W/m² | - |
| 1778065990 | 7.22° C | 95% | 1014.9 hPa | 0 mm | - | 2 W/m² | - |
| 1778065384 | 7.22° C | 95% | 1015.2 hPa | 0 mm | - | 1 W/m² | - |
| 1778064475 | 7.22° C | 94% | 1015.5 hPa | 0 mm | - | 0 W/m² | - |
| 1778063567 | 7.22° C | 94% | 1015.4 hPa | 0 mm | - | 0 W/m² | - |
| 1778062659 | 6.67° C | 95% | 1015.1 hPa | 0 mm | - | 0 W/m² | - |
| 1778061450 | 6.67° C | 95% | 1013.8 hPa | 0 mm | - | 0 W/m² | - |
| 1778061146 | 6.67° C | 95% | 1013.6 hPa | 0 mm | - | 0 W/m² | - |
| 1778060240 | 6.67° C | 95% | 1013.3 hPa | 0 mm | - | 0 W/m² | - |
| 1778059936 | 6.67° C | 95% | 1013.3 hPa | 0 mm | - | 0 W/m² | - |
| 1778059634 | 6.67° C | 95% | 1013.3 hPa | 0 mm | - | 0 W/m² | - |
| 1778059029 | 6.67° C | 95% | 1013 hPa | 0 mm | - | 0 W/m² | - |
| 1778056907 | 6.67° C | 95% | 1013.2 hPa | 0 mm | - | 0 W/m² | - |
| 1778056604 | 6.67° C | 95% | 1013.2 hPa | 0 mm | - | 0 W/m² | - |
| 1778056302 | 6.67° C | 95% | 1013.6 hPa | 0 mm | - | 0 W/m² | - |
| 1778055392 | 6.67° C | 95% | 1013.6 hPa | 0 mm | - | 0 W/m² | - |
| 1778053576 | 6.67° C | 95% | 1013.8 hPa | 0 mm | - | 0 W/m² | - |
* Rain latest hour (hover to see other rain measurements)
** Current wind speed in m/s (hover to see current wind gust speed)